[ hide orbit diagram ]
For accurate long-term ephemerides, please instead use our Horizons system.This orbit viewer was implemented using two-body methods, and hence should not be used for determining accurate long-term trajectories (over several years or decades) or planetary encounter circumstances.
[ revert to old Java-based viewer ]
Orbital Elements at Epoch 2458600.5 (2019-Apr-27.0) TDB
Reference: JPL 11 (heliocentric ecliptic J2000)
Element | Value | Uncertainty (1-sigma) | Units |
e | .1355873839233941 | 5.2727e-08 | |
a | 3.091839558873489 | 3.4485e-08 | au |
q | 2.672625121574972 | 1.6799e-07 | au |
i | 3.316166866760794 | 5.9833e-06 | deg |
node | 198.0239146662942 | 0.00011118 | deg |
peri | 331.8218586215098 | 0.00011361 | deg |
M | 1.264497431805745 | 2.3601e-05 | deg |
tp | 2458593.525078855995 (2019-Apr-20.02507886) | 0.00013015 | TDB |
period | 1985.746707493205 5.44 | 3.3222e-05 9.096e-08 | d yr |
n | .1812920039809417 | 3.0331e-09 | deg/d |
Q | 3.511053996172006 | 3.9161e-08 | au |
|
| | Orbit Determination Parameters
Additional Information
|
[ show covariance matrix ]
Physical Parameter Table
Parameter |
Symbol |
Value |
Units |
Sigma |
Reference |
Notes |
absolute magnitude |
H |
16.0 |
|
n/a |
MPO433967 |
|
|
305395 (2008 CW64) Discovered 2008-Feb-08 by Mt. Lemmon Survey at Mount Lemmon |
Reference: 20111110/Numbers.arc | Last Updated: 2011-11-14 |
|
[ show close-approach data ]
|